Location: *
(49.2333°S, 177.3500°W)
Time: 21:27:13
(UTC+00:00)

Daily predictions for brighter satellites

Satellite Brightness Start Highest point End
(mag) Time Altitude Azimuth Time Altitude Azimuth Time Altitude Azimuth
SJ 16-02 3.5 12:02:50 11° WNW 12:06:02 22° SW 12:09:30 10° S
ATLAS 5 CENTAUR R/B 4.0 12:07:17 19° NE 12:08:35 20° ENE 12:13:04 10° ESE
Cosmos 1975 2.9 12:04:57 10° SSW 12:08:59 60° W 12:09:19 58° WNW
Cosmos 1271 Rocket 3.3 12:07:10 10° SSW 12:10:49 42° W 12:10:50 42° W
Cosmos 2251 Rocket 4.0 12:06:55 10° SSW 12:12:10 49° WNW 12:13:24 41° NW
Cosmos 1812 4.2 12:11:26 26° W 12:12:20 29° WSW 12:15:52 10° S
PSLV R/B 4.2 12:11:33 44° NW 12:12:26 50° W 12:17:10 10° SSW
ERBS 3.6 12:13:44 32° E 12:13:44 32° E 12:15:57 10° ESE
Meteor 1-18 Rocket 4.3 12:11:40 40° NNW 12:13:43 69° WSW 12:19:22 10° S
CZ-4C R/B 3.0 12:13:30 10° S 12:17:06 76° WSW 12:17:13 75° W
GP-B 4.4 12:14:44 10° SSW 12:18:43 30° WSW 12:19:57 26° WNW
Helios 1A Rocket 4.5 12:18:09 21° ENE 12:19:56 30° ESE 12:23:34 10° S
COSMOS 2428 4.3 12:18:34 18° NE 12:20:17 21° E 12:24:25 10° SE
Cosmos 1092 Rocket 4.2 12:15:24 10° SSW 12:21:30 60° W 12:23:47 38° NNW
DELTA 2 DEB (DPAF) 4.3 12:17:06 10° S 12:21:40 68° WSW 12:22:47 48° NW
Genesis I 3.8 12:22:21 44° ENE 12:22:21 44° ENE 12:25:46 10° SE
ARIANE 5 R/B 3.7 12:22:55 18° ENE 12:26:02 36° ESE 12:30:41 10° S
Cosmos 1536 Rocket 4.2 12:26:49 40° NE 12:27:46 47° E 12:32:05 10° SSE
Cosmos 2278 Rocket 4.2 12:25:23 10° SSW 12:30:09 26° SE 12:34:53 10° E
ALOS 2 2.6 12:25:50 10° SSE 12:30:20 82° WSW 12:31:18 55° NNW
COSMOS 2455 3.4 12:26:04 10° SW 12:31:39 40° WNW 12:32:54 36° NW
SL-24 R/B 4.1 12:28:12 10° SSE 12:32:39 78° ENE 12:33:31 56° N
NPP 3.6 12:32:03 41° NNE 12:34:03 89° WNW 12:39:35 10° SSW
Okean 1 4.3 12:34:28 34° W 12:35:13 37° WSW 12:39:03 10° S
Cosmos 1634 Rocket 4.0 12:33:52 38° NNW 12:36:23 76° W 12:42:42 10° S
Cosmos 1844 Rocket 3.2 12:31:13 10° SSW 12:36:53 58° ESE 12:40:57 19° NE
CZ-2C R/B 4.3 12:34:25 10° S 12:38:33 29° WSW 12:40:51 20° WNW
Lacrosse 5 rocket 2.6 12:35:01 10° SW 12:39:02 41° SSE 12:42:50 10° E
Cosmos 1455 Rocket 3.2 12:36:42 10° SSW 12:41:13 62° W 12:42:02 51° NW
Cosmos 1743 3.5 12:38:25 10° SSW 12:42:03 37° W 12:42:10 37° W
Cosmos 407 Rocket 4.2 12:37:22 10° SSW 12:42:28 51° ESE 12:45:51 20° NE
Meteor 2-9 Rocket 4.2 12:36:49 10° SSW 12:42:46 81° W 12:45:00 40° N
Resurs 1-4 Rocket 2.3 12:41:27 32° NNE 12:43:57 71° ESE 12:49:20 10° S
CBERS-1 4.0 12:45:13 43° N 12:46:58 79° WNW 12:52:13 10° SSW
MOS 1 Rocket 3.6 12:49:06 44° NNW 12:50:25 58° W 12:55:15 10° SSW
Cosmos 1544 Rocket 4.0 12:46:34 10° SSW 12:50:55 47° W 12:51:38 42° WNW
Cosmos 2237 Rocket 4.4 12:50:31 10° ENE 12:52:55 13° E 12:55:20 10° ESE
Cosmos 2322 3.9 12:52:58 39° N 12:55:01 62° ENE 13:00:43 10° SE
Okean 2 4.5 12:54:23 31° NE 12:55:34 37° E 12:59:28 10° SSE
Cosmos 2279 Rocket 4.0 12:52:53 37° N 12:55:37 87° W 13:02:02 10° S
Cosmos 1515 4.1 13:01:10 47° NE 13:01:52 55° E 13:05:42 10° SSE
Aureole 2 Rocket 2.4 13:01:59 72° N 13:02:19 84° ENE 13:06:13 10° SSE
Cosmos 1844 4.0 12:58:22 10° SSW 13:04:13 72° ESE 13:08:48 17° NE
Meteor 1-23 Rocket 4.4 13:02:54 35° N 13:05:29 74° E 13:11:24 10° SSE
USA 229 DEB 3.6 12:59:47 10° SW 13:06:54 84° NW 13:13:22 12° NE
USA 229 3.6 12:59:53 10° SW 13:07:00 84° NW 13:13:34 11° NE
Cosmos 2322 Rocket 3.0 13:04:25 22° WNW 13:07:44 44° SW 13:13:12 10° SSE
Cosmos 1025 Rocket 3.6 13:06:57 34° NE 13:08:25 49° E 13:12:42 10° SSE
Cosmos 1689 Rocket 4.1 13:07:19 10° SE 13:09:47 21° E 13:10:17 20° ENE
IRS-1C 4.2 13:07:56 38° N 13:09:56 65° WNW 13:15:21 10° SSW
NOSS 3-1 (A) 4.3 13:04:04 10° SW 13:10:46 54° SE 13:16:36 10° ENE
USA 267 4.4 13:04:40 10° ESE 13:10:52 46° S 13:17:05 10° WSW
IRS-1D 3.4 13:09:29 37° N 13:11:35 81° WNW 13:16:42 10° SSW
Cosmos 2237 4.2 13:14:49 36° NNW 13:17:15 79° ENE 13:23:02 10° SSE
Cosmos 1371 Rocket 4.1 13:17:42 37° N 13:19:52 77° ENE 13:25:19 10° SSE
Cosmos 2219 Rocket 3.1 13:18:54 25° NNE 13:21:29 39° ENE 13:26:43 10° SE
Cosmos 220 Rocket 4.0 13:17:04 10° SSW 13:21:32 70° WNW 13:22:52 43° N
Okean 1-7 Rocket 4.2 13:21:50 31° NNE 13:23:39 50° E 13:28:00 10° SSE
ADEOS 3.7 13:21:18 24° NNE 13:24:31 78° ESE 13:29:51 10° SSW
Cosmos 1655 Rocket 4.5 13:18:46 10° SSW 13:24:47 46° W 13:27:30 30° NW
CBERS 1 LM4 rocket 4.3 13:22:38 31° NNE 13:25:03 88° WNW 13:29:58 10° SSW
AQUA 4.4 13:24:57 35° NW 13:26:07 41° W 13:30:43 10° SSW
CZ-4C R/B 3.0 13:25:35 10° SSE 13:29:18 82° ENE 13:30:05 53° N
Cosmos 614 Rocket 4.4 13:24:44 10° SSW 13:30:01 62° ESE 13:35:03 11° NE
SL-16 R/B 3.6 13:26:32 15° WNW 13:30:36 32° SW 13:35:44 10° SSE
H-2A R/B 4.3 13:27:56 10° SSW 13:30:59 18° WSW 13:33:22 12° W
Cosmos 1242 Rocket 3.1 13:30:26 10° S 13:33:57 53° ESE 13:35:28 29° NE
UNKNOWN OBJECT B 3.0 13:35:11 29° NNE 13:37:03 69° ESE 13:41:02 10° S
Cosmos 2360 Rocket 2.6 13:34:39 26° WNW 13:37:42 56° WSW 13:43:19 10° SSE
ADEOS II 3.0 13:32:48 10° NE 13:37:51 47° ESE 13:42:58 10° S
Cosmos 2333 4.2 13:36:05 32° NNW 13:38:49 75° ENE 13:44:29 10° SSE
Meteor 2-4 Rocket 4.4 13:36:21 26° NW 13:39:08 44° WSW 13:44:35 10° S
H-2A R/B 4.4 13:39:39 16° W 13:39:49 16° W 13:42:23 10° SW
Cosmos 1900 4.3 13:38:08 35° NNW 13:40:07 71° ENE 13:45:04 10° SE
CZ-2D R/B 2.7 13:38:17 31° NW 13:40:17 44° W 13:45:33 10° SSW
Cosmos 2228 3.9 13:36:32 10° S 13:40:56 49° ESE 13:44:20 16° NNE
Okean O Rocket 4.4 13:38:17 10° E 13:41:09 17° ESE 13:44:01 10° SSE
Cosmos 2263 Rocket 4.1 13:38:51 10° WSW 13:41:13 13° W 13:41:46 13° WNW
Cosmos 1190 Rocket 4.3 13:39:49 10° SSW 13:45:01 51° WNW 13:47:20 30° NNW
Cosmos 2266 Rocket 4.1 13:41:11 10° SSW 13:47:14 60° W 13:50:33 27° NNW
Cosmos 967 Rocket 4.5 13:45:00 26° NW 13:48:44 80° SW 13:55:05 10° SE
ERBS 3.7 13:46:56 17° W 13:49:13 37° SSW 13:52:33 10° SE
Cosmos 1340 Rocket 3.8 13:49:42 22° NNE 13:51:53 42° E 13:55:44 10° SSE
Cosmos 2058 Rocket 3.5 13:47:29 10° S 13:51:57 62° ESE 13:55:12 18° NNE
ATLAS 5 CENTAUR R/B 2.5 13:48:49 27° NW 13:52:43 82° NE 13:58:54 10° SE
Cosmos 2056 Rocket 3.6 13:49:55 29° NNW 13:52:45 75° WSW 13:58:15 10° SSE
CZ-4B R/B 1.3 13:50:15 10° SSE 13:53:34 89° E 13:54:30 45° NNW
Helios 1A Rocket 3.9 13:54:26 28° WNW 13:55:07 30° W 13:58:47 10° SW
Cosmos 2333 Rocket 2.5 13:55:13 25° N 13:58:30 62° ENE 14:04:09 10° SE
Cosmos 1544 3.2 13:56:56 10° S 14:00:40 75° E 14:02:45 24° NNE
NOSS 3-1 (C) 3.3 13:54:19 10° SW 14:00:54 69° NW 14:06:40 10° NNE
Cosmos 1818 4.2 13:56:02 10° SW 14:01:24 60° SE 14:06:45 10° NE
Cosmos 1452 Rocket 3.9 13:58:30 23° N 14:01:41 59° ENE 14:06:55 10° SSE
COSMOS 2428 2.8 14:00:34 26° NW 14:03:55 74° WSW 14:09:43 10° SSE
ARIANE 5 R/B 3.2 14:03:15 26° NW 14:05:10 35° W 14:09:51 10° SSW
Cosmos 1606 Rocket 3.7 14:00:47 10° SSW 14:05:15 60° W 14:07:27 28° NNW
Cosmos 1184 Rocket 4.4 14:06:37 22° W 14:07:27 24° WSW 14:10:16 10° SSW
Cosmos 1726 Rocket 3.7 14:09:05 10° SSW 14:13:33 59° W 14:16:03 24° NNW
Cosmos 2278 Rocket 2.2 14:09:06 10° SSW 14:14:51 75° WNW 14:20:33 10° NNE
Cosmos 921 Rocket 3.6 14:12:33 21° N 14:15:27 56° ENE 14:19:53 10° SSE
SL-16 R/B 3.9 14:13:01 10° NNE 14:17:34 25° ENE 14:22:08 10° SE
USA 215 4.5 14:12:08 10° ESE 14:17:49 30° NE 14:22:31 14° N
Cosmos 1766 3.2 14:13:55 10° S 14:18:01 84° W 14:20:50 19° N
Lacrosse 5 rocket 1.3 14:14:22 10° WSW 14:18:23 53° NW 14:22:10 10° NE
Cosmos 1844 Rocket 3.7 14:15:42 10° SW 14:20:25 27° WNW 14:22:33 21° NW
SL-16 R/B 3.7 14:14:48 10° SSE 14:20:44 40° E 14:26:36 10° NNE
Lacrosse 4 Rocket 2.8 14:18:36 16° N 14:21:37 33° ENE 14:25:42 10° SE
Cosmos 1140 Rocket 3.7 14:17:53 10° SSW 14:22:58 50° WNW 14:26:48 17° N
Resurs 1-4 Rocket 3.6 14:22:31 17° WNW 14:24:20 20° W 14:28:11 10° SW
Iridium 3 4.2 14:21:24 10° S 14:24:43 66° W 14:26:03 30° NNW
Cosmos 1758 4.4 14:20:58 10° S 14:25:01 47° ESE 14:28:59 10° NNE
Cosmos 1626 Rocket 4.4 14:24:52 11° NNE 14:28:55 48° E 14:33:14 10° SSE
Tiangong 1 2.8 14:35:56 13° NNE 14:35:56 13° NNE 14:36:40 10° NE
Cosmos 2237 Rocket 2.3 14:31:40 18° NNW 14:35:58 75° ENE 14:41:42 10° SSE
SAR-Lupe-2 3.8 14:36:31 10° SSE 14:40:12 68° ENE 14:43:02 16° N
ATLAS 2AS CENTAUR R/B 4.0 14:34:30 10° SW 14:40:14 40° SSE 14:46:17 10° ENE
Cosmos 1689 Rocket 3.7 14:38:56 10° SSW 14:41:33 24° WSW 14:42:55 18° WNW
CZ-4B R/B 3.8 14:40:53 10° NNE 14:46:17 61° ESE 14:51:52 10° S
Cosmos 1850 Rocket 4.0 14:42:49 10° SSW 14:47:59 60° WNW 14:53:07 10° N
Cosmos 1420 Rocket 4.1 14:47:36 16° NNW 14:51:51 73° WSW 14:57:17 10° SSE
USA 267 3.8 14:46:53 10° ENE 14:53:22 66° SSE 14:59:54 10° WSW
Cosmos 1805 3.5 14:49:54 10° SSW 14:53:49 52° W 14:57:21 12° N
Cosmos 1812 Rocket 3.7 14:50:20 10° S 14:54:51 85° E 14:59:21 10° N
Cosmos 1238 Rocket 3.2 14:53:34 10° N 14:57:28 75° E 15:02:22 10° SSE
Cosmos 2369 Rocket 4.4 14:55:59 10° SSW 15:01:01 30° SE 15:05:59 10° ENE
NOSS 3-1 (A) 3.8 14:55:31 10° SW 15:01:30 40° WNW 15:06:50 10° N
SL-08 R/B 3.4 14:58:43 10° SSE 15:03:36 82° WSW 15:08:29 10° NNW
Cosmos 1461 3.1 15:00:27 14° NNW 15:04:06 69° NE 15:08:15 10° SE
Cosmos 2219 Rocket 3.0 15:00:37 13° WNW 15:05:26 42° SW 15:10:49 10° SSE
IRS-1C Rocket 4.5 15:01:59 10° NNE 15:07:16 71° ESE 15:12:38 10° SSW
Meteor 1-31 Rocket 3.5 15:04:10 10° NNE 15:07:58 57° ESE 15:11:53 10° S
Cosmos 1356 Rocket 3.4 15:04:41 10° NNW 15:08:48 83° WSW 15:12:58 10° S
Cosmos 2084 4.0 15:07:24 10° SW 15:12:25 80° SE 15:17:19 10° NE
Cosmos 1953 2.3 15:09:16 10° SSW 15:13:22 67° W 15:17:24 10° N
S3M 4.1 15:07:36 10° NNW 15:13:52 64° WSW 15:20:08 10° S
Cosmos 1602 Rocket 3.7 15:09:54 10° NNW 15:14:25 67° WSW 15:18:57 10° S
Okean O Rocket 1.6 15:12:29 10° N 15:16:58 73° WNW 15:21:32 10° SSW
ADEOS II 3.1 15:13:11 10° NNW 15:17:47 29° W 15:22:25 10° SSW
Cosmos 1356 3.7 15:14:37 11° NNW 15:17:58 59° WSW 15:21:32 10° S
Cosmos 1707 3.5 15:15:12 10° N 15:19:01 53° E 15:22:51 10° SSE
NOSS 2-3 (C) 4.4 15:14:07 10° SW 15:21:05 75° NW 15:26:32 10° NNE
Cosmos 2360 Rocket 4.4 15:19:42 10° WSW 15:23:03 16° SSW 15:26:25 10° S
Uosat 12 SS-18 rocket 4.3 15:19:46 10° SW 15:23:53 44° WNW 15:27:53 10° NNE
Cosmos 1553 Rocket 4.4 15:18:00 10° NNW 15:24:07 50° WSW 15:30:26 10° S
Cosmos 2297 3.9 15:18:53 10° SW 15:24:30 53° WNW 15:30:05 10° N
Intercosmos 25 Rocket 4.3 15:22:54 10° N 15:27:20 88° W 15:34:51 10° S
Cosmos 1980 4.3 15:21:52 10° NW 15:27:22 48° SW 15:32:56 10° SSE
CZ-4B R/B 3.6 15:30:43 10° NNW 15:34:07 31° W 15:37:43 10° SSW
CZ-4B R/B 4.1 15:31:21 10° N 15:35:53 75° WNW 15:40:20 10° SSW
UNK 4.2 15:32:53 10° S 15:37:21 47° WSW 15:41:48 10° NW
Cosmos 1733 3.8 15:33:46 10° SSW 15:37:23 38° W 15:40:58 10° NNW
CZ-2C R/B 4.2 15:33:16 10° NE 15:38:02 40° ESE 15:42:55 10° S
ATLAS 5 CENTAUR R/B 3.6 15:32:12 10° W 15:38:04 34° SSW 15:43:28 10° SE
Cosmos 2333 Rocket 3.5 15:38:16 10° WNW 15:43:12 29° SW 15:48:12 10° SSE
IDEFIX/ARIANE 42P 3.3 15:38:53 10° NNE 15:44:04 61° ESE 15:49:17 10° S
Cosmos 1818 4.4 15:40:05 10° WSW 15:44:40 29° WNW 15:49:14 10° N
Cosmos 2315 Rocket 4.1 15:38:39 10° N 15:45:04 85° W 15:51:30 10° S
Cosmos 1110 Rocket 4.1 15:40:23 10° NNW 15:45:44 80° WSW 15:51:11 10° SSE
Meteor 2-5 Rocket 4.2 15:42:10 10° N 15:47:44 65° E 15:53:19 10° SSE
